Back to catalog

PORCUPINE 2

AliveMilitaryPO
NORAD 1577·PAYLOAD·🇺🇸 United States

Launched Aug 13, 1965 from Vandenberg Space Force Base

Loading…

Next Passes (next 24 hours)

TLE

FreshSource: Space-Track

Epoch: Sep 14, 2026, 09:07 UTC

1 01577U 65065J   26257.38035473  .00000092  00000-0  16020-3 0  9990
2 01577  90.0367 212.3880 0068563 210.7249 316.1526 13.36268667974567

Track PORCUPINE 2 in real time with AllMySat

Download on the App Store